Tracking 31027 objects as of 19-Jul-2025
HD Live streaming from Space Station
objects crossing your sky now

SL-12 DEB

Track SL-12 DEB now!
10-day predictions


NORAD ID: 41562
Int'l Code: 2008-067L
Perigee: 787.1 km
Apogee: 18,868.9 km
Inclination: 65.4 °
Period: 342.0 minutes
Semi major axis: 16198 km
RCS: Unknown
Launch date: December 25, 2008
Source: Commonwealth of Independent States (former USSR) (CIS)
Launch site: TYURATAM MISSILE AND SPACE COMPLEX (TTMTR)

Note: This is SATELLITE DEBRIS
Your satellite tracking list
EUTE 33A (EB 3)
Track 1 satellite(s)




NASA's NSSDC Master Catalog

Two Line Element Set (TLE):
1 41562U 08067L   25187.37832091  .00000510  00000-0  76864-2 0  9994
2 41562  65.4315 322.9804 5581165 259.4405  36.3411  4.21086864142411
Source of the keplerian elements: AFSPC